NOAA 16 DEB, 41353

Orbit data source: Space-Track

NOAA 16 DEB, 41353 is space debris in SSO originally from a launch on Thu, 21 Sep 2000 UTC launched from the Air Force Western Test Range (AFWTR). Debris objects in space refer to the collection of defunct objects orbiting the Earth. Examples of debris include non-operational satellites, rocket bodies, and fragments generated from explosions, collisions, or faulty payload assembly.

Loading next visibility...
Identifier
41353, 2000-055HW
Orbit
SSO
Country
Flag of USUS
Related business
Manufacturer
Unknown
Mission
Spacecraft
Bus & Motor
Unknown
Mass
Unknown
Launch date (UTC)
2000-09-21 (25 years ago)
Launch vehicle
Unknown
Launch site
Air Force Western Test Range (AFWTR)
Object type
Payload
Rocket body
Debris
Shape & HBR
Unknown shape, 0.1 m
Radar Cross Section
Small (<0.1 m²)

Expand to show TLE details & history
Last TLE update: 3 days ago

TLE from 3 days ago
0 NOAA 16 DEB
1 41353U 00055HW  26035.91201963  .00004527  00000-0  19473-2 0  9997
2 41353  98.6964 103.9823 0024373  99.3003 261.0934 14.24963697517132
Epoch: 2026-02-04T21:53Z
TLE epoch observation values (Epoch: 2026-02-04T21:53:18.496Z)
Latitude
0.00001°
Longitude
0.58343°
Altitude
814.291 km
Speed
7.445 km/s
True Right ascension
06h 55m 55s
True Declination
0° 00' 00"
Sunlit
Object was in full shadow at epoch
Visualization orbit readout
Latitude
Unknown
Longitude
Unknown
Altitude
Unknown
Speed
Unknown
Apparent Right ascension
Unknown
Apparent Declination
Unknown
Sunlit
N/A
Visualization observer readout
Local Sidereal Time
14:02:54
Azimuth
Unknown
Elevation
Unknown
Doppler factor
Unknown
Orbital elements
Apogee altitude
823.275 km
Perigee altitude
788.257 km
Semi-major axis
7,183.903 km
Eccentricity
0.00244
Inclination
98.6964°
RAAN
103.9823°
Arg. of periapsis
99.3003°
True anomaly
260.8176°
Mean anomaly
261.0934°
Eccentric anomaly
260.95549°
Mean motion
3.56453 °/min
Orbital period
101 mins
BSTAR
0.0019473
Loading maneuver chart data...
Computing Atmospheric mass density...
Loading historical data...
Loading historical data...
Loading historical data...
Loading historical data...
Loading historical data...
Loading historical data...
Loading historical data...

Documentation

Showing up to 5 results
|